Big Rapids, MI

6:32 AM EST on November 22, 2017 (GMT -0500)
Roben-Hood

Weather History for KRQB - July, 2013

Change the Weather History Date:

Sunday, July 28, 2013

  Actual Average Record
Temperature  
Mean Temperature 56 °F -  
Max Temperature 65 °F 79 °F 96 °F (1988)
Min Temperature 47 °F 55 °F 44 °F (1978)
Degree Days  
Heating Degree Days 9    
Growing Degree Days 6 (Base 50)    
Moisture  
Dew Point 49 °F    
Average Humidity 79    
Maximum Humidity 96    
Minimum Humidity 45    
Precipitation  
Precipitation 0.02 in - - ()
Sea Level Pressure  
Sea Level Pressure 29.85 in    
Wind  
Wind Speed 5 mph (WSW)    
Max Wind Speed 18 mph    
Max Gust Speed 24 mph    
Visibility 10 miles    
Events Rain    
Averages and records for this station are not official NWS values.
T = Trace of Precipitation, MM = Missing Value Source: NWS Daily Summary

Daily Weather History Graph

Daily Weather History Graph

Search for Another Location

Airport or City:

Trip Planner

Search our weather history database for the weather conditions in past years. The results will help you decide how hot, cold, wet, or windy it might be!

Date:

Astronomy

Jul. 28, 2013 Rise Set
Actual Time 6:26 AM EDT 9:09 PM EDT
Civil Twilight 5:53 AM EDT 9:42 PM EDT
Nautical Twilight 5:11 AM EDT 10:24 PM EDT
Astronomical Twilight 4:23 AM EDT 11:11 PM EDT
Moon No Moon Rise 1:23 PM EDT (7/28)
Length of Visible Light 15h 48m
Length of Day
14h 42m
Waning Gibbous, 61% of the Moon is Illuminated
Jul 28
Waning Gibbous
Jul 29
Last Quarter
Aug 6
New
Aug 14
First Quarter
Aug 20
Full

Hourly Weather History & Observations

Time (EDT) Temp. Dew Point Humidity Pressure Visibility Wind Dir Wind Speed Gust Speed Precip Events Conditions
12:15 AM 50.5 °F 47.1 °F 88% 29.83 in 10.0 mi WSW 4.6 mph - N/A   Clear
12:35 AM 50.5 °F 47.3 °F 89% 29.83 in 10.0 mi WSW 4.6 mph - N/A   Mostly Cloudy
12:54 AM 50.2 °F 46.9 °F 89% 29.83 in 10.0 mi West 3.5 mph - N/A   Scattered Clouds
1:15 AM 50.0 °F 46.6 °F 88% 29.82 in 10.0 mi Calm Calm - N/A   Scattered Clouds
1:35 AM 49.3 °F 46.4 °F 90% 29.82 in 10.0 mi West 3.5 mph - N/A   Scattered Clouds
1:54 AM 49.6 °F 46.4 °F 89% 29.81 in 10.0 mi West 3.5 mph - N/A   Mostly Cloudy
2:15 AM 49.8 °F 46.2 °F 87% 29.81 in 10.0 mi Calm Calm - N/A   Mostly Cloudy
2:35 AM 47.5 °F 45.7 °F 93% 29.81 in 10.0 mi SSE 3.5 mph - N/A   Mostly Cloudy
2:54 AM 48.0 °F 46.6 °F 95% 29.80 in 10.0 mi Calm Calm - N/A   Overcast
3:15 AM 48.4 °F 47.3 °F 96% 29.80 in 10.0 mi Calm Calm - N/A   Overcast
3:35 AM 49.3 °F 48.0 °F 95% 29.80 in 10.0 mi Calm Calm - N/A   Overcast
3:54 AM 49.6 °F 48.2 °F 95% 29.80 in 10.0 mi Calm Calm - N/A   Mostly Cloudy
4:15 AM 49.6 °F 48.2 °F 95% 29.80 in 10.0 mi Calm Calm - N/A   Mostly Cloudy
4:35 AM 50.0 °F 48.2 °F 94% 29.79 in 10.0 mi Calm Calm - N/A   Overcast
4:54 AM 50.4 °F 48.9 °F 95% 29.80 in 10.0 mi Calm Calm - N/A   Overcast
5:15 AM 50.5 °F 48.9 °F 94% 29.79 in 10.0 mi Calm Calm - N/A   Overcast
5:35 AM 50.7 °F 48.9 °F 94% 29.80 in 10.0 mi Calm Calm - N/A   Overcast
5:54 AM 50.9 °F 49.1 °F 94% 29.79 in 10.0 mi Calm Calm - N/A   Overcast
6:15 AM 50.5 °F 49.1 °F 95% 29.80 in 10.0 mi Calm Calm - N/A   Overcast
6:35 AM 50.9 °F 49.1 °F 94% 29.80 in 10.0 mi Calm Calm - N/A   Overcast
6:54 AM 50.9 °F 49.1 °F 94% 29.80 in 10.0 mi SSE 3.5 mph - N/A   Overcast
7:15 AM 50.9 °F 49.3 °F 94% 29.80 in 10.0 mi SSE 3.5 mph - N/A   Overcast
7:35 AM 51.3 °F 50.0 °F 95% 29.81 in 10.0 mi Calm Calm - N/A   Overcast
7:54 AM 52.0 °F 50.2 °F 94% 29.81 in 10.0 mi SSE 4.6 mph - N/A   Overcast
8:15 AM 52.7 °F 50.7 °F 93% 29.81 in 10.0 mi Calm Calm - N/A Rain Light Rain
8:35 AM 53.2 °F 50.9 °F 92% 29.82 in 10.0 mi SE 4.6 mph - N/A   Overcast
8:54 AM 54.0 °F 51.1 °F 90% 29.82 in 10.0 mi Calm Calm - N/A   Overcast
9:15 AM 54.7 °F 51.1 °F 88% 29.82 in 10.0 mi SW 5.8 mph - N/A   Overcast
9:35 AM 55.4 °F 50.9 °F 85% 29.82 in 10.0 mi WSW 8.1 mph - N/A   Overcast
9:54 AM 55.9 °F 48.0 °F 75% 29.82 in 10.0 mi SSW 6.9 mph - N/A   Overcast
10:15 AM 56.3 °F 47.8 °F 73% 29.82 in 10.0 mi SW 5.8 mph - N/A   Overcast
10:35 AM 57.2 °F 47.8 °F 71% 29.82 in 10.0 mi SSW 6.9 mph - N/A   Overcast
10:55 AM 56.8 °F 47.5 °F 71% 29.83 in 10.0 mi SSW 5.8 mph - N/A   Overcast
11:15 AM 57.0 °F 47.7 °F 71% 29.83 in 10.0 mi SW 5.8 mph - N/A   Overcast
11:34 AM 57.7 °F 47.7 °F 69% 29.84 in 10.0 mi WSW 9.2 mph - N/A   Overcast
11:55 AM 59.4 °F 47.1 °F 64% 29.84 in 10.0 mi SW 8.1 mph - N/A   Overcast
12:15 PM 60.1 °F 46.8 °F 61% 29.84 in 10.0 mi WSW 9.2 mph - N/A   Overcast
12:34 PM 60.1 °F 47.7 °F 64% 29.84 in 10.0 mi West 11.5 mph - N/A   Overcast
12:55 PM 61.3 °F 48.6 °F 63% 29.84 in 10.0 mi West 10.4 mph - N/A   Overcast
1:15 PM 61.2 °F 47.7 °F 61% 29.84 in 10.0 mi NW 6.9 mph - N/A   Overcast
1:34 PM 63.3 °F 46.8 °F 55% 29.84 in 10.0 mi SW 5.8 mph - N/A   Overcast
1:55 PM 61.2 °F 46.8 °F 59% 29.84 in 10.0 mi WSW 9.2 mph - N/A   Overcast
2:15 PM 61.5 °F 49.8 °F 65% 29.84 in 10.0 mi West 8.1 mph - N/A Rain Light Rain
2:34 PM 64.6 °F 47.3 °F 53% 29.84 in 10.0 mi WSW 13.8 mph 18.4 mph N/A   Mostly Cloudy
2:55 PM 61.5 °F 46.8 °F 58% 29.85 in 10.0 mi West 13.8 mph 20.7 mph N/A   Overcast
3:15 PM 60.3 °F 49.8 °F 68% 29.86 in 10.0 mi West 18.4 mph 24.2 mph N/A   Overcast
3:34 PM 62.2 °F 47.3 °F 58% 29.86 in 10.0 mi West 11.5 mph 17.3 mph N/A   Mostly Cloudy
3:55 PM 63.9 °F 46.9 °F 54% 29.86 in 10.0 mi West 13.8 mph 18.4 mph N/A   Overcast
4:15 PM 64.2 °F 46.2 °F 52% 29.86 in 10.0 mi WNW 12.7 mph 17.3 mph N/A   Overcast
4:34 PM 65.5 °F 45.5 °F 48% 29.87 in 10.0 mi NW 11.5 mph 18.4 mph N/A   Scattered Clouds
4:55 PM 65.5 °F 43.5 °F 45% 29.87 in 10.0 mi WNW 11.5 mph 20.7 mph N/A   Mostly Cloudy
5:14 PM 64.6 °F 43.0 °F 45% 29.88 in 10.0 mi West 15.0 mph 24.2 mph N/A   Scattered Clouds
5:35 PM 64.8 °F 44.4 °F 48% 29.88 in 10.0 mi West 12.7 mph 18.4 mph N/A   Scattered Clouds
5:55 PM 63.3 °F 43.9 °F 49% 29.89 in 10.0 mi West 13.8 mph 23.0 mph N/A   Scattered Clouds
6:14 PM 62.1 °F 44.2 °F 52% 29.90 in 10.0 mi West 15.0 mph 20.7 mph N/A   Mostly Cloudy
6:35 PM 58.8 °F 47.7 °F 66% 29.91 in 10.0 mi West 11.5 mph 19.6 mph N/A Rain Light Rain
6:55 PM 57.6 °F 49.5 °F 74% 29.91 in 10.0 mi WNW 10.4 mph - N/A Rain Light Rain
7:14 PM 57.2 °F 50.4 °F 78% 29.91 in 10.0 mi West 6.9 mph - N/A Rain Light Rain
7:35 PM 57.2 °F 50.7 °F 79% 29.92 in 10.0 mi West 6.9 mph - N/A   Overcast
7:55 PM 56.7 °F 52.7 °F 87% 29.92 in 7.0 mi WSW 10.4 mph - N/A   Light Drizzle
8:14 PM 56.3 °F 52.3 °F 87% 29.92 in 10.0 mi WSW 8.1 mph - N/A Rain Light Rain
8:35 PM 55.9 °F 52.9 °F 89% 29.92 in 10.0 mi WSW 4.6 mph - N/A   Overcast
8:55 PM 55.8 °F 52.9 °F 90% 29.92 in 10.0 mi WSW 4.6 mph - N/A   Overcast
9:14 PM 55.6 °F 53.1 °F 91% 29.92 in 10.0 mi SW 5.8 mph - N/A Rain Light Rain
9:35 PM 55.4 °F 53.1 °F 92% 29.92 in 10.0 mi SW 3.5 mph - N/A Rain Light Rain
9:55 PM 55.4 °F 53.1 °F 92% 29.92 in 10.0 mi SSW 4.6 mph - N/A Rain Rain
10:14 PM 55.0 °F 53.1 °F 93% 29.92 in 7.0 mi SSW 5.8 mph - 0.01 in   Drizzle
10:35 PM 54.9 °F 53.1 °F 94% 29.92 in 10.0 mi South 6.9 mph - 0.01 in   Light Drizzle
10:55 PM 54.9 °F 53.1 °F 94% 29.92 in 7.0 mi South 8.1 mph - 0.01 in Rain Light Rain
11:14 PM 54.9 °F 53.2 °F 94% 29.92 in 7.0 mi SW 4.6 mph - 0.01 in   Drizzle
11:35 PM 55.0 °F 53.4 °F 94% 29.92 in 4.0 mi SW 8.1 mph - 0.01 in   Drizzle
11:55 PM 55.4 °F 53.6 °F 94% 29.92 in 5.0 mi WSW 8.1 mph - 0.01 in   Light Drizzle